Weather History for Dayton Wright, OH

Change the Weather History Date:

Wednesday, January 23, 2013

  Actual Average (KFFO) Record (KFFO)
Temperature  
Mean Temperature 14 °F -  
Max Temperature 19 °F 33 °F 62 °F (1999)
Min Temperature 10 °F 16 °F -2 °F (2005)
Degree Days  
Heating Degree Days 50    
Moisture  
Dew Point 5 °F    
Average Humidity 61    
Maximum Humidity 78    
Minimum Humidity 43    
Precipitation  
Precipitation 0.00 in - - ()
Sea Level Pressure  
Sea Level Pressure 30.26 in    
Wind  
Wind Speed 5 mph (WSW)    
Max Wind Speed 13 mph    
Max Gust Speed 17 mph    
Visibility 9 miles    
Events Snow    
Averages and records for this station are not official NWS values.
T = Trace of Precipitation, MM = Missing Value Source: NWS Daily Summary

Daily Weather History Graph

Daily Weather History Graph

Search for Another Location

Airport:

Trip Planner

Search our weather history database for the weather conditions in past years. The results will help you decide how hot, cold, wet, or windy it might be!

Date:

Astronomy

Jan. 23, 2013 Rise Set
Actual Time 7:51 AM EST 5:46 PM EST
Civil Twilight 7:22 AM EST 6:15 PM EST
Nautical Twilight 6:49 AM EST 6:48 PM EST
Astronomical Twilight 6:17 AM EST 7:20 PM EST
Moon 2:56 PM EST (1/23) 5:02 AM EST (1/23)
Length of Visible Light 10h 53m
Length of Day
9h 55m
Waxing Gibbous, 89% of the Moon is Illuminated
Jan 23
Waxing Gibbous
Jan 26
Full
Feb 3
Last Quarter
Feb 10
New
Feb 17
First Quarter

Hourly Weather History & Observations

Time (EST) Temp. Windchill Dew Point Humidity Pressure Visibility Wind Dir Wind Speed Gust Speed Precip Events Conditions
12:53 AM 12.9 °F 6.9 °F 1.0 °F 59% 30.35 in 10.0 mi West 3.5 mph - N/A   Overcast
1:53 AM 14.0 °F 5.1 °F -0.9 °F 52% 30.35 in 10.0 mi West 5.8 mph - N/A   Overcast
2:53 AM 14.0 °F 5.1 °F -0.9 °F 52% 30.36 in 10.0 mi WNW 5.8 mph - N/A   Overcast
3:53 AM 12.0 °F 2.7 °F 1.0 °F 61% 30.35 in 10.0 mi NW 5.8 mph - N/A   Scattered Clouds
4:53 AM 10.0 °F - 1.0 °F 67% 30.35 in 10.0 mi Calm Calm - N/A   Clear
5:53 AM 12.0 °F - 1.0 °F 61% 30.35 in 10.0 mi Calm Calm - N/A   Overcast
6:53 AM 12.0 °F 5.9 °F -0.0 °F 59% 30.35 in 10.0 mi WSW 3.5 mph - N/A   Overcast
7:53 AM 12.9 °F 5.2 °F 1.9 °F 62% 30.35 in 10.0 mi South 4.6 mph - N/A   Overcast
8:53 AM 14.0 °F 6.5 °F 1.9 °F 59% 30.35 in 10.0 mi SW 4.6 mph - N/A   Overcast
9:53 AM 15.1 °F 4.2 °F -0.0 °F 51% 30.35 in 10.0 mi WSW 8.1 mph - N/A   Overcast
10:53 AM 16.0 °F 4.4 °F -0.9 °F 47% 30.34 in 10.0 mi WSW 9.2 mph - N/A   Overcast
11:53 AM 18.0 °F 6.1 °F -0.9 °F 44% 30.31 in 10.0 mi SW 10.4 mph 16.1 mph N/A   Overcast
12:53 PM 19.0 °F 7.5 °F -0.0 °F 43% 30.27 in 10.0 mi SW 10.4 mph - N/A   Overcast
1:53 PM 19.0 °F 6.1 °F 3.9 °F 52% 30.23 in 10.0 mi SW 12.7 mph 17.3 mph N/A   Overcast
2:53 PM 19.0 °F 8.2 °F 5.0 °F 54% 30.22 in 10.0 mi WSW 9.2 mph - N/A   Overcast
3:53 PM 19.0 °F 9.0 °F 6.1 °F 57% 30.20 in 5.0 mi SW 8.1 mph - 0.00 in Snow Light Snow
4:53 PM 18.0 °F 8.7 °F 10.0 °F 71% 30.19 in 10.0 mi WSW 6.9 mph - 0.00 in   Overcast
5:53 PM 18.0 °F - 9.0 °F 68% 30.17 in 6.0 mi Calm Calm - 0.00 in Snow Light Snow
6:53 PM 18.0 °F - 10.9 °F 74% 30.16 in 8.0 mi Calm Calm - 0.00 in Snow Light Snow
7:53 PM 18.0 °F - 12.0 °F 78% 30.14 in 10.0 mi Calm Calm - 0.00 in   Overcast
8:53 PM 19.0 °F - 12.0 °F 74% 30.14 in 10.0 mi Calm Calm - N/A   Overcast
9:53 PM 18.0 °F 12.7 °F 12.0 °F 78% 30.12 in 10.0 mi SSE 3.5 mph - N/A   Overcast
10:53 PM 19.0 °F 13.9 °F 12.0 °F 74% 30.12 in 10.0 mi SSW 3.5 mph - N/A   Overcast
11:45 PM 19.4 °F 14.3 °F 12.2 °F 74% 30.07 in 2.5 mi SW 3.5 mph - 0.00 in Snow Light Snow